Abilene, TX

6:14 PM CST on January 19, 2017 (GMT -0600)
Abilene Regional

Weather History for KABI - March, 2012

Change the Weather History Date:

Wednesday, March 21, 2012

  Actual Average Record
Temperature  
Mean Temperature 50 °F 58 °F  
Max Temperature 61 °F 70 °F 98 °F (1916)
Min Temperature 38 °F 45 °F 25 °F (1913)
Degree Days  
Heating Degree Days 15 8  
Month to date heating degree days 143 225  
Since 1 July heating degree days 2053 2358  
Cooling Degree Days 0 1  
Month to date cooling degree days 26 16  
Year to date cooling degree days 32 21  
Moisture  
Dew Point 39 °F    
Average Humidity 61    
Maximum Humidity 86    
Minimum Humidity 36    
Precipitation  
Precipitation 0.04 in 0.05 in 0.77 in (1948)
Month to date precipitation 1.21 1.18  
Year to date precipitation 5.68 3.56  
Sea Level Pressure  
Sea Level Pressure 29.80 in    
Wind  
Wind Speed 9 mph (West)    
Max Wind Speed 23 mph    
Max Gust Speed 29 mph    
Visibility 10 miles    
Events Rain    
T = Trace of Precipitation, MM = Missing Value Source: NWS Daily Summary

Daily Weather History Graph

Daily Weather History Graph

Search for Another Location

Airport or City:

Trip Planner

Search our weather history database for the weather conditions in past years. The results will help you decide how hot, cold, wet, or windy it might be!

Date:

Astronomy

Mar. 21, 2012 Rise Set
Actual Time 7:40 AM CDT 7:51 PM CDT
Civil Twilight 7:15 AM CDT 8:15 PM CDT
Nautical Twilight 6:47 AM CDT 8:44 PM CDT
Astronomical Twilight 6:18 AM CDT 9:13 PM CDT
Moon 6:51 AM CDT (3/21) 7:18 PM CDT (3/21)
Length of Visible Light 12h 59m
Length of Day
12h 10m
Waning Crescent, 1% of the Moon is Illuminated
Mar 21
Waning Crescent
Mar 22
New
Mar 30
First Quarter
Apr 6
Full
Apr 13
Last Quarter

Hourly Weather History & Observations

Time (CDT) Temp. Windchill Dew Point Humidity Pressure Visibility Wind Dir Wind Speed Gust Speed Precip Events Conditions
12:52 AM 41.0 °F 36.4 °F 34.0 °F 76% 29.79 in 10.0 mi South 6.9 mph - N/A   Clear
1:52 AM 42.1 °F 37.7 °F 32.0 °F 67% 29.78 in 10.0 mi SE 6.9 mph - N/A   Clear
2:52 AM 41.0 °F 38.0 °F 33.1 °F 73% 29.78 in 10.0 mi South 4.6 mph - N/A   Clear
3:52 AM 39.9 °F 35.1 °F 33.1 °F 77% 29.77 in 10.0 mi SSW 6.9 mph - N/A   Clear
4:52 AM 39.0 °F 34.8 °F 33.1 °F 79% 29.77 in 10.0 mi SW 5.8 mph - N/A   Clear
5:52 AM 39.0 °F 36.8 °F 33.1 °F 79% 29.77 in 10.0 mi West 3.5 mph - N/A   Mostly Cloudy
6:52 AM 37.9 °F 33.5 °F 33.1 °F 83% 29.78 in 10.0 mi West 5.8 mph - N/A   Clear
7:52 AM 39.9 °F 34.5 °F 36.0 °F 86% 29.80 in 10.0 mi WNW 8.1 mph - N/A   Clear
8:32 AM 41.0 °F 34.3 °F 37.4 °F 87% 29.83 in 10.0 mi West 11.5 mph - N/A   Mostly Cloudy
8:52 AM 42.1 °F 36.6 °F 37.9 °F 85% 29.82 in 10.0 mi West 9.2 mph - N/A   Mostly Cloudy
9:52 AM 48.0 °F - 39.9 °F 74% 29.83 in 10.0 mi WNW 18.4 mph - N/A   Scattered Clouds
10:52 AM 52.0 °F - 42.1 °F 69% 29.83 in 10.0 mi WNW 12.7 mph - N/A   Clear
11:52 AM 55.9 °F - 41.0 °F 57% 29.81 in 10.0 mi WNW 11.5 mph - N/A   Clear
12:52 PM 59.0 °F - 39.9 °F 49% 29.80 in 10.0 mi WNW 15.0 mph 24.2 mph N/A   Partly Cloudy
1:52 PM 60.1 °F - 34.0 °F 38% 29.78 in 10.0 mi West 15.0 mph - N/A   Mostly Cloudy
2:52 PM 55.0 °F - 37.9 °F 53% 29.77 in 10.0 mi West 11.5 mph 28.8 mph 0.00 in Rain Light Rain
3:52 PM 52.0 °F - 46.0 °F 80% 29.77 in 10.0 mi NNW 12.7 mph - 0.01 in Rain Light Rain
4:52 PM 52.0 °F - 48.0 °F 86% 29.78 in 10.0 mi West 10.4 mph - 0.03 in   Overcast
5:52 PM 52.0 °F - 44.1 °F 74% 29.78 in 10.0 mi WNW 16.1 mph 25.3 mph N/A   Overcast
6:52 PM 53.1 °F - 42.1 °F 66% 29.79 in 10.0 mi WNW 11.5 mph - N/A   Mostly Cloudy
7:52 PM 52.0 °F - 41.0 °F 66% 29.78 in 10.0 mi West 9.2 mph 19.6 mph N/A   Clear
8:52 PM 50.0 °F - 41.0 °F 71% 29.81 in 10.0 mi West 5.8 mph - N/A   Partly Cloudy
9:52 PM 50.0 °F - 41.0 °F 71% 29.82 in 10.0 mi West 11.5 mph - N/A   Mostly Cloudy
10:52 PM 48.9 °F - 42.1 °F 77% 29.85 in 10.0 mi NW 6.9 mph - N/A   Partly Cloudy
11:52 PM 48.0 °F - 44.1 °F 86% 29.84 in 10.0 mi Calm Calm - N/A   Overcast